Weather History for Belize, Belize

Change the Weather History Date:

Thursday, January 3, 2013

  Actual Average Record
Temperature  
Mean Temperature 79 °F -  
Max Temperature 85 °F - 87 °F (2005)
Min Temperature 73 °F - 62 °F (2008)
Cooling Degree Days 14    
Growing Degree Days 29 (Base 50)    
Moisture  
Dew Point 74 °F    
Average Humidity 83    
Maximum Humidity 100    
Minimum Humidity 66    
Precipitation  
Precipitation 0.35 in 0.18 in - ()
Sea Level Pressure  
Sea Level Pressure 29.98 in    
Wind  
Wind Speed 4 mph ()    
Max Wind Speed 12 mph    
Max Gust Speed -    
Visibility 7.6 miles    
Events Rain , Thunderstorm    
Averages and records for this station are not official NWS values.
T = Trace of Precipitation, MM = Missing Value Source: Averaged Metar Reports

Daily Weather History Graph

Daily Weather History Graph

Search for Another Location

Airport:

Trip Planner

Search our weather history database for the weather conditions in past years. The results will help you decide how hot, cold, wet, or windy it might be!

Date:

Astronomy

Jan. 03, 2013 Rise Set
Actual Time 6:24 AM CST 5:31 PM CST
Civil Twilight 6:00 AM CST 5:54 PM CST
Nautical Twilight 5:33 AM CST 6:21 PM CST
Astronomical Twilight 5:07 AM CST 6:48 PM CST
Moon 11:05 PM CST (1/3) 10:31 AM CST (1/3)
Length of Visible Light 11h 53m
Length of Day
11h 06m
Waning Gibbous, 65% of the Moon is Illuminated
Jan 3
Waning Gibbous
Jan 4
Last Quarter
Jan 11
New
Jan 18
First Quarter
Jan 26
Full

Hourly Weather History & Observations

Time (CST) Temp. Heat Index Dew Point Humidity Pressure Visibility Wind Dir Wind Speed Gust Speed Precip Events Conditions
12:00 AM 77 °F - 74 °F 88% 29.98 in 12 mi Calm Calm - -   Mostly Cloudy
3:00 AM 75 °F - 74 °F 95% 29.96 in 12 mi ENE 4.6 mph - - Rain Light Rain Showers
5:00 AM 75.2 °F - 73.4 °F 94% 29.95 in 6.2 mi Calm Calm - N/A   Scattered Clouds
6:00 AM 73.4 °F - 73.4 °F 100% 29.98 in 6.2 mi Calm Calm - N/A   Scattered Clouds
7:00 AM 73.4 °F - 71.6 °F 94% 29.98 in 6.2 mi Calm Calm - N/A   Scattered Clouds
8:00 AM 75.2 °F - 73.4 °F 94% 30.01 in 6.2 mi WSW 2.3 mph - N/A   Mostly Cloudy
9:00 AM 80 °F - 76 °F 82% 30.03 in 12 mi Calm Calm - -   Partly Cloudy
9:00 AM 78.8 °F - 75.2 °F 89% 30.02 in 6.2 mi Calm Calm - N/A   Scattered Clouds
10:00 AM 82.4 °F 88.2 °F 73.4 °F 74% 30.02 in 6.2 mi East 9.2 mph - N/A   Scattered Clouds
11:00 AM 84.2 °F 92.3 °F 75.2 °F 74% 30.00 in 6.2 mi ENE 8.1 mph - N/A   Mostly Cloudy
12:00 PM 83 °F - 73 °F 66% 29.99 in 12 mi East 11.5 mph - -   Mostly Cloudy
12:00 PM 82.4 °F 88.2 °F 73.4 °F 74% 29.98 in 6.2 mi East 11.5 mph - N/A   Mostly Cloudy
1:00 PM 84.2 °F 89.6 °F 71.6 °F 66% 29.95 in 6.2 mi East 9.2 mph - N/A   Scattered Clouds
2:00 PM 84.2 °F 92.3 °F 75.2 °F 74% 29.94 in 6.2 mi East 9.2 mph - N/A   Scattered Clouds
3:00 PM 81 °F - 74 °F 75% 29.95 in 11 mi East 9.2 mph - -   Mostly Cloudy
3:00 PM 80.6 °F 86.2 °F 75.2 °F 84% 29.94 in 6.2 mi East 9.2 mph - N/A   Mostly Cloudy
4:00 PM 80.6 °F 85.4 °F 73.4 °F 79% 29.95 in 6.2 mi East 5.8 mph - N/A   Mostly Cloudy
5:00 PM 80.6 °F 85.4 °F 73.4 °F 79% 29.96 in 6.2 mi East 4.6 mph - N/A   Mostly Cloudy
6:00 PM 80 °F - 74 °F 79% 29.99 in 9 mi ENE 9.2 mph - -   Mostly Cloudy
6:00 PM 80.6 °F 86.2 °F 75.2 °F 84% 29.98 in 6.2 mi ENE 9.2 mph - N/A   Scattered Clouds
9:00 PM 76 °F - 74 °F 91% 30.04 in 5 mi ENE 11.5 mph - - Rain , Thunderstorm Thunderstorms and Rain